[Iaude] MPEC D104: 2015 DV248 [a=45.23,e=0.15,i=20.0,H=7.60]

mpec at cfa.harvard.edu mpec at cfa.harvard.edu
Thu Feb 22 01:49:48 EST 2024


M.P.E.C. 2024-D104                            Issued 2024 February 22, 06:48 UT

     The Minor Planet Electronic Circulars contain information on unusual
         minor planets, routine data on comets and natural satellites,
         and occasional editorial announcements.  They are published
    on behalf of Division F of the International Astronomical Union by the
          Minor Planet Center, Smithsonian Astrophysical Observatory,
                          Cambridge, MA 02138, U.S.A.
			  
             Prepared using the Tamkin Foundation Computer Network

                              MPC at CFA.HARVARD.EDU
            URL https://www.minorplanetcenter.net/    ISSN 1523-6714

                                   2015 DV248                                   


Additional Observations:
     K15DO8V 4C2016 12 25.46657 09 45 18.17 +00 27 09.0          23.6 r1ED104T09
     K15DO8V 4C2016 12 25.48541 09 45 18.11 +00 27 09.0          23.6 r1ED104T09
     K15DO8V 4C2016 12 25.49589 09 45 18.09 +00 27 08.8          24.0 r1ED104T09
     K15DO8V 4C2016 12 25.50217 09 45 18.06 +00 27 08.8          24.1 r1ED104T09
     K15DO8V 4C2017 01 21.37737 09 43 35.43 +00 28 17.5          23.3 z1ED104T09
     K15DO8V 4C2017 01 21.56723 09 43 34.55 +00 28 19.6          23.0 z1ED104T09
     K15DO8V 4C2017 01 21.62447 09 43 34.28 +00 28 20.1          23.1 z1ED104T09
     K15DO8V 4C2017 01 21.63253 09 43 34.24 +00 28 20.1          23.0 z1ED104T09
     K15DO8V 4C2017 01 21.64327 09 43 34.18 +00 28 20.2          23.2 z1ED104T09
     K15DO8V 4C2017 01 28.39557 09 43 02.53 +00 29 43.5          23.9 g1ED104T09
     K15DO8V 4C2017 01 28.43325 09 43 02.34 +00 29 44.0          24.0 g1ED104T09
     K15DO8V 4C2017 01 28.44234 09 43 02.30 +00 29 44.1          24.2 g1ED104T09
     K15DO8V 4C2017 01 28.46131 09 43 02.22 +00 29 44.3          24.1 g1ED104T09
     K15DO8V 4C2017 01 28.47880 09 43 02.12 +00 29 44.8          24.1 g1ED104T09
     K15DO8V 4C2017 03 04.38044 09 40 11.11 +00 41 56.0          23.3 i1ED104T09
     K15DO8V 4C2017 03 04.39116 09 40 11.06 +00 41 56.3          23.1 i1ED104T09
     K15DO8V 4C2017 03 04.41351 09 40 10.95 +00 41 57.0          23.0 i1ED104T09
     K15DO8V 4C2017 03 04.42156 09 40 10.92 +00 41 57.2          23.0 i1ED104T09
     K15DO8V 4C2017 03 04.42430 09 40 10.89 +00 41 57.2          23.1 i1ED104T09

Observer details:
T09 Subaru Telescope, Maunakea.  Observers H. Aihara, Y. AlSayyad, M. Ando, R.
    Armstrong, J. Bosch, E. Egami, H. Furusawa, J. Furusawa, S. Harasawa, Y.
    Harikane, B.-C. Hsieh, H. Ikeda, K. Ito, I. Iwata, T. Kodama, M. Koike, M.
    Kokubo, Y. Komiyama, X. Li, Y. Liang, Y.-T. Lin, R. H. Lupton, N. B. Lust,
    L. A. MacArthur, K. Mawatari, S. Mineo, H. Miyatake, S. Miyazaki, S. More,
    T. Morishima, H. Murayama, K. Nakajima, F. Nakata, A. J. Nishizawa, M.
    Oguri, N. Okabe, Y. Okura, Y. Ono, K. Osato, M. Ouchi, Y.-C. Pan, A. A.
    Plazas Malagon, P. A. Price, S. L. Reed, E. S. Rykoff, T. Shibuya, M.
    Simunovic, M. A. Strauss, K. Sugimori, Y. Suto, N. Suzuki, M. Takada, Y.
    Takagi, T. Takata, S. Takita, M. Tanaka, S. Tang, D. S. Taranu, T. Terai,
    Y. Toba, E. L. Turner, H. Uchiyama, B. Vijarnwannaluk, C. Z. Waters, Y.
    Yamada, N. Yamamoto, T. Yamashita.  Measurer A. Yamauchi.  8.2-m f/2.0
    reflector + CCD(HSC).

Orbital elements:
2015 DV248                                                                      
Epoch 2024 Mar. 31.0 TT = JDT 2460400.5                 Alexandersen            
M  37.23084              (2000.0)            P               Q                  
n   0.00323987     Peri.  179.79386     -0.35593790     -0.87810103             
a  45.2325474      Node   291.04462     +0.85690474     -0.17015767             
e   0.1456338      Incl.   20.03612     +0.37285718     -0.44719677             
P 304              H    7.60          G   0.15           U   6                  
Residuals in seconds of arc
150217 W84  0.3-  0.1-    150222 W84  0.3-  0.5-    170121 T09  0.0   0.0
150217 W84  0.1-  0.0     150224 W84  0.1+  0.0     170121 T09  0.2-  0.0
150217 W84  0.2+  0.5-    150224 W84  0.0   0.1-    170128 T09  0.0   0.0
150218 W84  0.1-  0.0     150411 W84  0.0   0.1+    170128 T09  0.1-  0.0
150218 W84  0.3+  0.0     150411 W84  0.1+  0.3+    170128 T09  0.0   0.0
150218 W84  0.1-  0.2-    161225 T09  0.0   0.1-    170128 T09  0.2+  0.1-
150218 W84  0.3-  0.2+    161225 T09  0.1-  0.0     170128 T09  0.1-  0.2+
150219 W84  0.4+  0.4+    161225 T09  0.1+  0.1-    170304 T09  0.0   0.1-
150219 W84  0.1+  0.3+    161225 T09  0.1-  0.1-    170304 T09  0.0   0.1-
150219 W84  0.1-  0.3-    170121 T09  0.1+  0.1+    170304 T09  0.0   0.0
150219 W84  0.2+  0.1-    170121 T09  0.1+  0.2+    170304 T09  0.1+  0.0
150222 W84  0.1+  0.5+    170121 T09  0.0   0.1+    170304 T09  0.2-  0.0

Ephemeris:
2015 DV248               a,e,i = 45.23, 0.15, 20                 q = 38.6452
Date    TT    R. A. (2000) Decl.     Delta      r    Elong.  Phase     V
2024 01 23    10 18 15.6 -05 43 10  39.6198 40.3886   140.9     0.9    23.8
...
2024 02 07    10 17 09.4 -05 40 37  39.5019 40.3929   154.3     0.6    23.7
...
2024 02 15    10 16 31.3 -05 38 21  39.4642 40.3951   160.3     0.5    23.7
...
2024 02 21    10 16 02.1 -05 36 16  39.4481 40.3968   163.5     0.4    23.7
2024 02 22    10 15 57.2 -05 35 54  39.4464 40.3971   163.8     0.4    23.7
2024 02 23    10 15 52.3 -05 35 31  39.4450 40.3974   164.1     0.4    23.7
...
2024 02 29    10 15 23.2 -05 33 06  39.4430 40.3991   164.6     0.4    23.7
...
2024 03 08    10 14 45.1 -05 29 32  39.4569 40.4014   161.9     0.4    23.7
...
2024 03 23    10 13 39.2 -05 22 08  39.5325 40.4056   150.8     0.7    23.7

M. P. C. Staff               (C) Copyright 2024 MPC           M.P.E.C. 2024-D104





More information about the Iaude mailing list